Location: Ethel Rock
(53.4667°N, 4.5667°W)
Time: 05:15:14
(UTC+00:00)

Cosmos 1833 Rocket - Pass Details

Date: 24 October 2020
Orbit: 832 x 840 km, 71.0° (Epoch: 25 November)

Event Time Altitude Azimuth Distance (km) Brightness Sun altitude
Rises 04:36:35 0° 176° (S) 3,379 5.8 -22.3°
Reaches altitude 10° 04:39:15 10° 166° (SSE) 2,451 5.1 -21.9°
Maximum altitude 04:44:08 31° 106° (ESE) 1,435 4.5 -21.2°
Drops below altitude 10° 04:49:01 10° 46° (NE) 2,468 5.9 -20.4°
Sets 04:51:42 0° 37° (NE) 3,407 6.5 -20.0°
